STARLINK-32288

Last updated on Tue Oct 01 2024 00:02:04 GMT+0000 (Coordinated Universal Time)

1 60943U 24155V 24274.40736953 .00001005 00000+0 26123-4 0 9998 2 60943 53.1631 52.6950 0001207 86.6348 273.4799 15.49310072 5823
UTC large
Height (km)
Speed (km/s)
/
Latitude / Longitude
Inclination (degrees)
Orbital Period (minutes)
Azimuth
Elevation
Range (km)
Doppler Factor

Next 0 passes for location: London (51.5072 / 0.1276)

Sorry there are no passes over London.